User: anonymous   Login
Location: Brno
(49.2000°N, 16.6330°E)
Time: 21:39:06
(UTC+02:00)
Language:

Cosmos 1459 Rocket - Orbit

View from above orbital plane
View from above orbital plane
View from above satellite
View from above satellite

Ground track
Ground track

The orbit data is extracted from the following two-line orbital elements,

1 14059U 83042B   16149.11735230  .00000113  00000-0  95858-4 0  9993
2 14059  82.9709 347.7360 0041186 268.2982 210.8526 13.78556866662703
Epoch (UTC): 28 May 2016 02:48:59
Eccentricity: 0.0041186
inclination: 82.9709°
perigee height: 939 km
apogee height: 999 km
right ascension of ascending node: 347.7360°
argument of perigee: 268.2982°
revolutions per day: 13.78556866
mean anomaly at epoch: 210.8526°
orbit number at epoch: 66270

The dashed part of the orbit path shows where the satellite is in the earth's shadow,  

DLR